sat.trackr.live / text

‹ back to catalog

YAOGAN-35 03B

NORAD 53318 · 2022-088C

PAYLOAD ACTIVE UNKNOWN

§ Identity

Operator
Country
PRC
Launch date
2022-07-29
Launch site
XICLF
Launch vehicle
Mass (kg)
RCS (m²)

External: N2YO · Heavens-Above · Gunter

§ Orbital elements

Epoch: 2026-09-20T14:32:45.981600Z

Period
94.37 min
Inclination
34.9885°
Eccentricity
0.0012056
Mean motion
15.25977005 rev/d
Perigee alt
479.6 km
Apogee alt
496.1 km
Semi-major
6,866.0 km
B*
2.1407e-4
RAAN
326.3519°
Arg perigee
162.2570°
Mean anomaly
197.8568°
Rev number
23,092

§ Raw data

YAOGAN-35 03B1 53318U 22088C   26263.60608775  .00005616  00000+0  21407-3 0  99922 53318  34.9885 326.3519 0012056 162.2570 197.8568 15.25977005230926

JSON: /api/v1/satellites/53318 · /tle

For live sub-satellite position, see the globe view (requires WebGL).

§ Visibility from observer

Set your observer location to see the next 7 days of passes ≥ 10°. The values pass through the URL so the page stays shareable.

No JS? Fill the form by hand. The geolocation button needs JavaScript.